WJA712 CYVR-CYYZ

Flight info

Callsign WJA712
Flight time N/A
Altitude 37000
Route ALNOD DCT IKNIX DCT BEVEL DCT 4930N10000W/N0463F390 DCT AGLIN DCT OTNIK BOXUM7
Aircraft B737/M-SDE2E3FGHIRWXY/LB1

Departure

Time 2026-05-07 19:14
Airport Vancouver International Airport (CYVR)

Arrival

Time N/A
Airport Toronto Pearson International Airport (CYYZ)
Time Latitude Longitude Altitude Speed Heading
2026-05-07 19:06 49.18482 -123.16158 22 ft 0 kts 280°
2026-05-07 19:07 49.18484 -123.16171 22 ft 0 kts 277°
2026-05-07 19:08 49.18464 -123.16317 21 ft 43 kts 251°
2026-05-07 19:08 49.18388 -123.16254 24 ft 3 kts
2026-05-07 19:09 49.18482 -123.16158 22 ft 0 kts 280°
2026-05-07 19:13 49.18502 -123.16328 22 ft 47 kts 279°
2026-05-07 19:13 49.18598 -123.17176 25 ft 113 kts 280°
2026-05-07 19:13 49.18765 -123.18621 84 ft 158 kts 279°
2026-05-07 19:14 49.18977 -123.20311 635 ft 164 kts 282°
2026-05-07 19:14 49.19177 -123.22027 1407 ft 161 kts 278°
2026-05-07 19:14 49.19360 -123.23753 1953 ft 173 kts 276°
2026-05-07 19:14 49.19524 -123.25724 2200 ft 201 kts 278°
2026-05-07 19:15 49.19724 -123.27941 2412 ft 225 kts 278°
2026-05-07 19:15 49.19950 -123.30369 2854 ft 237 kts 278°
2026-05-07 19:15 49.20297 -123.32935 3218 ft 256 kts 291°
2026-05-07 19:15 49.20783 -123.35588 3902 ft 265 kts 272°
2026-05-07 19:16 49.20430 -123.38335 4731 ft 267 kts 244°
2026-05-07 19:16 49.19267 -123.40542 5511 ft 271 kts 215°
2026-05-07 19:16 49.17556 -123.41676 6361 ft 270 kts 187°
2026-05-07 19:16 49.15696 -123.41621 7238 ft 270 kts 166°
2026-05-07 19:17 49.13998 -123.40440 7999 ft 273 kts 139°
2026-05-07 19:17 49.12869 -123.38113 8834 ft 276 kts 111°
2026-05-07 19:17 49.12438 -123.35251 9681 ft 281 kts 95°
2026-05-07 19:17 49.12289 -123.32237 10375 ft 292 kts 92°
2026-05-07 19:18 49.12189 -123.29083 10586 ft 318 kts 92°
2026-05-07 19:18 49.12091 -123.25595 10774 ft 344 kts 92°
2026-05-07 19:18 49.11980 -123.21849 11177 ft 360 kts 92°
2026-05-07 19:18 49.11856 -123.17997 11857 ft 366 kts 92°
2026-05-07 19:19 49.11721 -123.14082 12682 ft 372 kts 92°
2026-05-07 19:19 49.11577 -123.10102 13406 ft 379 kts 92°
2026-05-07 19:19 49.11425 -123.06043 14112 ft 386 kts 92°
2026-05-07 19:19 49.11266 -123.01932 14804 ft 391 kts 92°
2026-05-07 19:20 49.11103 -122.97775 15542 ft 395 kts 92°
2026-05-07 19:20 49.10937 -122.93608 16251 ft 400 kts 92°
2026-05-07 19:20 49.10768 -122.89388 16935 ft 407 kts 92°
2026-05-07 19:20 49.10590 -122.84985 17695 ft 413 kts 92°
2026-05-07 19:21 49.10412 -122.80649 18345 ft 418 kts 92°
2026-05-07 19:21 49.10228 -122.76201 18879 ft 423 kts 92°
2026-05-07 19:21 49.10040 -122.71689 19419 ft 428 kts 92°
2026-05-07 19:21 49.09848 -122.67138 19962 ft 432 kts 92°
2026-05-07 19:22 49.09652 -122.62534 20508 ft 437 kts 92°
2026-05-07 19:22 49.09453 -122.57886 21063 ft 442 kts 92°
2026-05-07 19:22 49.09247 -122.53117 21547 ft 448 kts 91°
2026-05-07 19:22 49.09041 -122.48409 22010 ft 454 kts 91°
2026-05-07 19:23 49.08829 -122.43589 22537 ft 457 kts 91°
2026-05-07 19:23 49.08612 -122.38723 23069 ft 461 kts 91°
2026-05-07 19:23 49.08391 -122.33821 23566 ft 466 kts 91°
2026-05-07 19:23 49.08167 -122.28876 23996 ft 470 kts 92°
2026-05-07 19:24 49.07938 -122.23877 24417 ft 474 kts 92°
2026-05-07 19:24 49.07705 -122.18851 24838 ft 477 kts 92°
2026-05-07 19:24 49.07469 -122.13805 25307 ft 478 kts 92°
2026-05-07 19:24 49.07229 -122.08731 25706 ft 482 kts 92°
2026-05-07 19:25 49.06985 -122.03606 26077 ft 486 kts 92°
2026-05-07 19:25 49.06738 -121.98453 26471 ft 489 kts 92°
2026-05-07 19:25 49.06486 -121.93265 26900 ft 492 kts 92°
2026-05-07 19:25 49.06230 -121.88043 27266 ft 496 kts 92°
2026-05-07 19:26 49.05971 -121.82781 27609 ft 500 kts 92°
2026-05-07 19:26 49.05710 -121.77533 27972 ft 503 kts 92°
2026-05-07 19:26 49.05442 -121.72208 28339 ft 505 kts 92°
2026-05-07 19:26 49.05200 -121.66847 28680 ft 507 kts 90°
2026-05-07 19:27 49.05322 -121.61487 28996 ft 507 kts 81°
2026-05-07 19:27 49.05794 -121.56151 29348 ft 508 kts 79°
2026-05-07 19:27 49.06322 -121.50818 29699 ft 510 kts 78°
2026-05-07 19:27 49.06863 -121.45469 30092 ft 511 kts 78°
2026-05-07 19:28 49.07392 -121.40115 30513 ft 510 kts 78°
2026-05-07 19:28 49.07904 -121.34761 30948 ft 508 kts 78°
2026-05-07 19:28 49.08396 -121.29437 31321 ft 508 kts 78°
2026-05-07 19:28 49.08880 -121.24088 31627 ft 509 kts 79°
2026-05-07 19:29 49.09357 -121.18730 31931 ft 511 kts 79°
2026-05-07 19:29 49.09830 -121.13360 32279 ft 511 kts 79°
2026-05-07 19:29 49.10299 -121.08000 32698 ft 509 kts 79°
2026-05-07 19:29 49.10765 -121.02654 33190 ft 507 kts 79°
2026-05-07 19:30 49.11228 -120.97320 33499 ft 508 kts 78°
2026-05-07 19:30 49.11692 -120.91966 33752 ft 510 kts 78°
2026-05-07 19:30 49.12155 -120.86596 34062 ft 510 kts 78°
2026-05-07 19:30 49.12614 -120.81236 34375 ft 509 kts 78°
2026-05-07 19:31 49.13071 -120.75875 34694 ft 508 kts 78°
2026-05-07 19:31 49.13524 -120.70524 34932 ft 509 kts 78°
2026-05-07 19:31 49.13977 -120.65157 35126 ft 510 kts 78°
2026-05-07 19:31 49.14427 -120.59792 35372 ft 509 kts 78°
2026-05-07 19:32 49.14873 -120.54428 35723 ft 508 kts 77°
2026-05-07 19:32 49.15316 -120.49080 35988 ft 508 kts 77°
2026-05-07 19:32 49.15755 -120.43737 36241 ft 507 kts 77°
2026-05-07 19:32 49.16192 -120.38397 36530 ft 506 kts 77°
2026-05-07 19:33 49.16626 -120.33060 36807 ft 506 kts 77°
2026-05-07 19:33 49.17057 -120.27735 36999 ft 506 kts 77°
2026-05-07 19:33 49.17912 -120.17080 37053 ft 504 kts 77°
2026-05-07 19:34 49.18758 -120.06423 37079 ft 507 kts 77°
2026-05-07 19:34 49.19600 -119.95686 37043 ft 509 kts 77°
2026-05-07 19:35 49.20432 -119.84923 37016 ft 510 kts 77°
2026-05-07 19:35 49.21253 -119.74165 36980 ft 508 kts 77°
2026-05-07 19:36 49.22052 -119.63557 37037 ft 507 kts 77°
2026-05-07 19:36 49.22850 -119.52844 37008 ft 506 kts 77°
2026-05-07 19:37 49.23638 -119.42140 36994 ft 507 kts 77°
2026-05-07 19:37 49.24407 -119.31572 36988 ft 506 kts 77°
2026-05-07 19:38 49.25167 -119.20946 36980 ft 505 kts 77°
2026-05-07 19:38 49.25885 -119.10251 36990 ft 506 kts 77°
2026-05-07 19:39 49.26574 -118.99617 37001 ft 505 kts 77°
2026-05-07 19:39 49.27149 -118.90649 36977 ft 505 kts 77°
2026-05-07 19:40 49.27938 -118.78241 36975 ft 503 kts 77°
2026-05-07 19:40 49.28610 -118.67573 36999 ft 502 kts 77°
2026-05-07 19:41 49.29268 -118.56940 36994 ft 501 kts 77°
2026-05-07 19:41 49.29919 -118.46291 36959 ft 503 kts 77°
2026-05-07 19:42 49.30557 -118.35641 36949 ft 501 kts 77°
2026-05-07 19:42 49.31179 -118.25070 36990 ft 499 kts 77°
2026-05-07 19:43 49.31794 -118.14544 36971 ft 502 kts 77°
2026-05-07 19:43 49.32403 -118.03920 36977 ft 501 kts 77°
2026-05-07 19:44 49.32901 -117.95079 36991 ft 500 kts 78°
2026-05-07 19:44 49.33490 -117.84448 36992 ft 501 kts 78°
2026-05-07 19:45 49.34071 -117.73831 37015 ft 501 kts 78°
2026-05-07 19:45 49.34642 -117.63190 36995 ft 501 kts 78°
2026-05-07 19:46 49.34922 -117.57875 36889 ft 498 kts 78°
2026-05-07 19:46 49.35197 -117.52612 37042 ft 495 kts 78°
2026-05-07 19:46 49.35745 -117.42060 36989 ft 499 kts 78°
2026-05-07 19:47 49.36287 -117.31492 36970 ft 501 kts 78°
2026-05-07 19:47 49.36816 -117.20896 36987 ft 503 kts 78°
2026-05-07 19:48 49.37341 -117.10179 36978 ft 504 kts 78°
2026-05-07 19:48 49.37855 -116.99471 36985 ft 503 kts 78°
2026-05-07 19:49 49.38351 -116.88970 36969 ft 504 kts 78°
2026-05-07 19:49 49.38844 -116.78288 37025 ft 503 kts 78°
2026-05-07 19:50 49.39327 -116.67621 36995 ft 503 kts 78°
2026-05-07 19:50 49.39806 -116.56846 36946 ft 500 kts 79°
2026-05-07 19:51 49.40270 -116.46244 36960 ft 498 kts 79°
2026-05-07 19:51 49.40720 -116.35662 36996 ft 503 kts 79°
2026-05-07 19:52 49.41171 -116.24855 37004 ft 506 kts 79°
2026-05-07 19:52 49.41613 -116.14113 36975 ft 507 kts 79°
2026-05-07 19:53 49.42039 -116.03300 36973 ft 507 kts 79°
2026-05-07 19:53 49.42454 -115.92495 36986 ft 507 kts 79°
2026-05-07 19:54 49.42857 -115.81820 37005 ft 507 kts 79°
2026-05-07 19:54 49.43257 -115.71011 36985 ft 506 kts 79°
2026-05-07 19:55 49.43645 -115.60227 36981 ft 505 kts 80°
2026-05-07 19:55 49.44024 -115.49432 36976 ft 506 kts 80°
2026-05-07 19:56 49.44391 -115.38657 36978 ft 504 kts 80°
2026-05-07 19:56 49.44748 -115.27908 36975 ft 503 kts 80°
2026-05-07 19:57 49.45094 -115.17178 36961 ft 502 kts 80°
2026-05-07 19:57 49.45430 -115.06474 36959 ft 502 kts 80°
2026-05-07 19:58 49.45757 -114.95754 36957 ft 502 kts 80°
2026-05-07 19:58 49.46072 -114.85038 37029 ft 502 kts 80°
2026-05-07 19:59 49.46382 -114.74288 36976 ft 505 kts 80°
2026-05-07 19:59 49.46679 -114.63517 36969 ft 505 kts 80°
2026-05-07 20:00 49.46968 -114.52728 36967 ft 510 kts 80°
2026-05-07 20:00 49.47245 -114.41970 36947 ft 508 kts 80°
2026-05-07 20:01 49.47510 -114.31149 36962 ft 505 kts 81°
2026-05-07 20:01 49.47766 -114.20395 36968 ft 502 kts 81°
2026-05-07 20:02 49.48012 -114.09686 36968 ft 500 kts 81°
2026-05-07 20:02 49.48246 -113.99070 36971 ft 498 kts 81°
2026-05-07 20:03 49.48470 -113.88525 37017 ft 496 kts 82°
2026-05-07 20:03 49.48685 -113.77942 36978 ft 496 kts 82°
2026-05-07 20:04 49.48889 -113.67378 36965 ft 495 kts 82°
2026-05-07 20:04 49.49084 -113.56818 36951 ft 495 kts 82°
2026-05-07 20:05 49.49270 -113.46219 36950 ft 496 kts 82°
2026-05-07 20:05 49.49447 -113.35614 36938 ft 498 kts 83°
2026-05-07 20:06 49.49613 -113.25003 36945 ft 498 kts 83°
2026-05-07 20:06 49.49770 -113.14333 36935 ft 499 kts 83°
2026-05-07 20:07 49.49917 -113.03658 36945 ft 499 kts 83°
2026-05-07 20:07 49.50054 -112.92998 36983 ft 499 kts 84°
2026-05-07 20:08 49.50182 -112.82349 36956 ft 499 kts 84°
2026-05-07 20:08 49.50299 -112.71704 36949 ft 498 kts 84°
2026-05-07 20:09 49.50407 -112.61082 36950 ft 497 kts 84°
2026-05-07 20:10 49.50550 -112.45205 36943 ft 496 kts 85°
2026-05-07 20:10 49.50633 -112.34584 36941 ft 496 kts 85°
2026-05-07 20:11 49.50707 -112.23975 36945 ft 496 kts 85°
2026-05-07 20:11 49.50771 -112.13370 36936 ft 496 kts 85°
2026-05-07 20:12 49.50825 -112.02851 36937 ft 496 kts 85°
2026-05-07 20:12 49.50870 -111.92264 36936 ft 497 kts 85°
2026-05-07 20:13 49.50905 -111.81632 36926 ft 497 kts 86°
2026-05-07 20:13 49.50930 -111.70996 36925 ft 497 kts 86°
2026-05-07 20:14 49.50945 -111.60457 36916 ft 497 kts 86°
2026-05-07 20:14 49.50951 -111.49819 36946 ft 498 kts 86°
2026-05-07 20:15 49.50948 -111.39155 36921 ft 498 kts 86°
2026-05-07 20:15 49.50934 -111.28491 36920 ft 498 kts 86°
2026-05-07 20:16 49.50910 -111.17824 36917 ft 499 kts 86°
2026-05-07 20:16 49.50877 -111.07230 36914 ft 498 kts 86°
2026-05-07 20:17 49.50834 -110.96563 36916 ft 499 kts 86°
2026-05-07 20:17 49.50781 -110.85904 36917 ft 498 kts 87°
2026-05-07 20:18 49.50719 -110.75242 36907 ft 498 kts 87°
2026-05-07 20:18 49.50646 -110.64593 36902 ft 498 kts 87°
2026-05-07 20:19 49.50564 -110.53951 36930 ft 497 kts 87°
2026-05-07 20:19 49.50473 -110.43309 36906 ft 497 kts 87°
2026-05-07 20:20 49.50371 -110.32668 36893 ft 497 kts 87°
2026-05-07 20:20 49.50260 -110.22044 36896 ft 497 kts 87°
2026-05-07 20:21 49.50126 -110.11409 36883 ft 498 kts 88°
2026-05-07 20:21 49.49997 -110.00798 36913 ft 497 kts 86°
2026-05-07 20:22 49.50286 -109.90212 36913 ft 494 kts 82°
2026-05-07 20:22 49.50782 -109.79663 36905 ft 495 kts 82°
2026-05-07 20:23 49.51269 -109.69097 36907 ft 495 kts 82°
2026-05-07 20:23 49.51711 -109.58516 36928 ft 496 kts 82°
2026-05-07 20:24 49.52127 -109.47909 36910 ft 497 kts 82°
2026-05-07 20:24 49.52529 -109.37298 36905 ft 497 kts 82°
2026-05-07 20:25 49.52923 -109.26682 36915 ft 497 kts 82°
2026-05-07 20:25 49.53309 -109.16072 36930 ft 497 kts 82°
2026-05-07 20:26 49.53683 -109.05517 36907 ft 497 kts 82°
2026-05-07 20:26 49.54050 -108.94903 36909 ft 497 kts 82°
2026-05-07 20:27 49.54406 -108.84290 36894 ft 496 kts 83°
2026-05-07 20:27 49.54753 -108.73691 36894 ft 495 kts 83°
2026-05-07 20:28 49.55089 -108.63110 36900 ft 495 kts 83°
2026-05-07 20:28 49.55416 -108.52536 36898 ft 494 kts 83°
2026-05-07 20:29 49.55732 -108.41971 36884 ft 494 kts 83°
2026-05-07 20:29 49.56039 -108.31398 36884 ft 493 kts 83°
2026-05-07 20:30 49.56336 -108.20854 36926 ft 493 kts 83°
2026-05-07 20:30 49.56623 -108.10303 36899 ft 493 kts 83°
2026-05-07 20:31 49.56900 -107.99766 36890 ft 492 kts 83°
2026-05-07 20:31 49.57125 -107.90941 36889 ft 492 kts 83°
2026-05-07 20:32 49.57384 -107.80407 36890 ft 492 kts 83°
2026-05-07 20:32 49.57634 -107.69877 36888 ft 492 kts 83°
2026-05-07 20:33 49.57875 -107.59334 36893 ft 492 kts 84°
2026-05-07 20:33 49.58106 -107.48785 36900 ft 493 kts 84°
2026-05-07 20:34 49.58328 -107.38226 36897 ft 493 kts 84°
2026-05-07 20:34 49.58538 -107.27737 36928 ft 494 kts 84°
2026-05-07 20:35 49.58741 -107.17154 36892 ft 494 kts 84°
2026-05-07 20:35 49.58934 -107.06576 36904 ft 494 kts 84°
2026-05-07 20:36 49.59117 -106.96033 36905 ft 494 kts 84°
2026-05-07 20:36 49.59289 -106.85578 36908 ft 493 kts 84°
2026-05-07 20:37 49.59453 -106.75003 36911 ft 494 kts 85°
2026-05-07 20:37 49.59608 -106.64430 36907 ft 493 kts 85°
2026-05-07 20:38 49.59753 -106.53857 36917 ft 493 kts 85°
2026-05-07 20:38 49.59888 -106.43292 36915 ft 493 kts 85°
2026-05-07 20:39 49.60013 -106.32773 36927 ft 493 kts 85°
2026-05-07 20:39 49.60129 -106.22214 36920 ft 492 kts 85°
2026-05-07 20:40 49.60235 -106.11665 36918 ft 492 kts 85°
2026-05-07 20:40 49.60332 -106.01126 36919 ft 492 kts 85°
2026-05-07 20:41 49.60419 -105.90590 36958 ft 492 kts 86°
2026-05-07 20:41 49.60497 -105.80032 36941 ft 492 kts 86°
2026-05-07 20:42 49.60565 -105.69480 36934 ft 492 kts 86°
2026-05-07 20:42 49.60623 -105.58943 36945 ft 492 kts 86°
2026-05-07 20:43 49.60672 -105.48394 36935 ft 492 kts 86°
2026-05-07 20:43 49.60711 -105.37852 36947 ft 492 kts 86°
2026-05-07 20:44 49.60741 -105.27427 36934 ft 492 kts 86°
2026-05-07 20:44 49.60761 -105.16878 36948 ft 492 kts 87°
2026-05-07 20:45 49.60771 -105.06333 36935 ft 492 kts 87°
2026-05-07 20:45 49.60772 -104.95798 36959 ft 492 kts 87°
2026-05-07 20:46 49.60764 -104.85246 36938 ft 492 kts 87°
2026-05-07 20:46 49.60746 -104.74774 36936 ft 492 kts 87°
2026-05-07 20:47 49.60718 -104.64234 36938 ft 492 kts 87°
2026-05-07 20:47 49.60681 -104.53699 36936 ft 491 kts 87°
2026-05-07 20:48 49.60634 -104.43165 36945 ft 491 kts 88°
2026-05-07 20:48 49.60578 -104.32628 36932 ft 491 kts 88°
2026-05-07 20:49 49.60512 -104.22100 36935 ft 491 kts 88°
2026-05-07 20:49 49.60436 -104.11573 36935 ft 491 kts 88°
2026-05-07 20:50 49.60351 -104.01056 36948 ft 491 kts 88°
2026-05-07 20:50 49.60257 -103.90523 36935 ft 491 kts 88°
2026-05-07 20:51 49.60153 -103.79994 36932 ft 491 kts 88°
2026-05-07 20:51 49.60039 -103.69469 36925 ft 491 kts 88°
2026-05-07 20:52 49.59916 -103.58945 36939 ft 491 kts 88°
2026-05-07 20:52 49.59783 -103.48428 36937 ft 491 kts 88°
2026-05-07 20:53 49.59641 -103.37902 36932 ft 491 kts 88°
2026-05-07 20:53 49.59489 -103.27378 36937 ft 491 kts 88°
2026-05-07 20:54 49.59328 -103.16859 36932 ft 491 kts 89°
2026-05-07 20:54 49.59157 -103.06342 36935 ft 491 kts 89°
2026-05-07 20:55 49.58977 -102.95820 36935 ft 491 kts 89°
2026-05-07 20:55 49.58787 -102.85294 36933 ft 491 kts 89°
2026-05-07 20:56 49.58588 -102.74767 36934 ft 491 kts 89°
2026-05-07 20:56 49.58378 -102.64242 36951 ft 491 kts 89°
2026-05-07 20:57 49.58161 -102.53767 36930 ft 492 kts 89°
2026-05-07 20:57 49.57935 -102.43339 36922 ft 492 kts 89°
2026-05-07 20:58 49.57697 -102.32804 36915 ft 492 kts 89°
2026-05-07 20:58 49.57450 -102.22273 36917 ft 492 kts 89°
2026-05-07 20:59 49.57192 -102.11739 36923 ft 492 kts 89°
2026-05-07 20:59 49.56926 -102.01205 36908 ft 492 kts 89°
2026-05-07 21:00 49.56650 -101.90675 36917 ft 492 kts 89°
2026-05-07 21:00 49.56364 -101.80163 36925 ft 492 kts 89°
2026-05-07 21:01 49.56069 -101.69637 36938 ft 492 kts 89°
2026-05-07 21:01 49.55768 -101.59203 36920 ft 492 kts 89°
2026-05-07 21:02 49.55455 -101.48722 36921 ft 492 kts 90°
2026-05-07 21:02 49.55131 -101.38196 36921 ft 492 kts 90°
2026-05-07 21:03 49.54801 -101.27790 36919 ft 492 kts 90°
2026-05-07 21:03 49.54456 -101.17190 36926 ft 493 kts 90°
2026-05-07 21:04 49.54104 -101.06664 36920 ft 493 kts 90°
2026-05-07 21:04 49.53744 -100.96193 36920 ft 493 kts 90°
2026-05-07 21:05 49.53372 -100.85653 36924 ft 493 kts 90°
2026-05-07 21:05 49.52993 -100.75184 36926 ft 494 kts 90°
2026-05-07 21:06 49.52602 -100.64641 36921 ft 494 kts 90°
2026-05-07 21:06 49.52200 -100.54084 36920 ft 494 kts 90°
2026-05-07 21:07 49.51790 -100.43540 36922 ft 494 kts 90°
2026-05-07 21:07 49.51370 -100.33001 36952 ft 494 kts 90°
2026-05-07 21:08 49.50941 -100.22448 36910 ft 494 kts 90°
2026-05-07 21:08 49.50503 -100.11900 36916 ft 494 kts 90°
2026-05-07 21:09 49.50056 -100.01354 36917 ft 494 kts 90°
2026-05-07 21:09 49.49457 -99.90807 36919 ft 495 kts 93°
2026-05-07 21:10 49.48654 -99.80268 36919 ft 497 kts 93°
2026-05-07 21:10 49.47840 -99.69727 36918 ft 496 kts 93°
2026-05-07 21:11 49.47050 -99.59187 36916 ft 497 kts 93°
2026-05-07 21:11 49.45874 -99.43363 36916 ft 496 kts 93°
2026-05-07 21:12 49.45081 -99.32821 36912 ft 497 kts 93°
2026-05-07 21:12 49.44275 -99.22274 36909 ft 497 kts 93°
2026-05-07 21:13 49.43460 -99.11741 36903 ft 496 kts 93°
2026-05-07 21:13 49.42636 -99.01220 36902 ft 496 kts 93°
2026-05-07 21:14 49.41802 -98.90701 36923 ft 496 kts 93°
2026-05-07 21:14 49.40958 -98.80185 36894 ft 496 kts 93°
2026-05-07 21:15 49.40106 -98.69685 36900 ft 495 kts 93°
2026-05-07 21:15 49.39246 -98.59202 36904 ft 495 kts 93°
2026-05-07 21:16 49.38376 -98.48722 36905 ft 495 kts 93°
2026-05-07 21:16 49.37502 -98.38305 36901 ft 495 kts 93°
2026-05-07 21:17 49.36762 -98.29569 36900 ft 495 kts 93°
2026-05-07 21:17 49.35865 -98.19090 36898 ft 495 kts 94°
2026-05-07 21:18 49.34976 -98.08830 36896 ft 496 kts 94°
2026-05-07 21:18 49.34059 -97.98344 36909 ft 497 kts 93°
2026-05-07 21:19 49.33131 -97.87849 36898 ft 497 kts 94°
2026-05-07 21:19 49.32192 -97.77342 36902 ft 497 kts 94°
2026-05-07 21:20 49.31244 -97.66844 36902 ft 497 kts 94°
2026-05-07 21:20 49.30286 -97.56344 36936 ft 497 kts 94°
2026-05-07 21:21 49.29318 -97.45844 36907 ft 498 kts 94°
2026-05-07 21:21 49.28347 -97.35424 36884 ft 498 kts 94°
2026-05-07 21:22 49.27355 -97.24877 36898 ft 497 kts 94°
2026-05-07 21:22 49.26366 -97.14469 36901 ft 497 kts 94°
2026-05-07 21:23 49.25361 -97.03985 36905 ft 498 kts 94°
2026-05-07 21:23 49.24338 -96.93435 36906 ft 498 kts 94°
2026-05-07 21:24 49.23313 -96.82959 36902 ft 498 kts 94°
2026-05-07 21:24 49.22279 -96.72495 36907 ft 497 kts 94°
2026-05-07 21:25 49.21237 -96.62041 36933 ft 497 kts 95°
2026-05-07 21:25 49.20190 -96.51647 36911 ft 497 kts 95°
2026-05-07 21:26 49.19129 -96.41206 36900 ft 497 kts 95°
2026-05-07 21:26 49.18060 -96.30787 36901 ft 496 kts 95°
2026-05-07 21:27 49.16983 -96.20379 36904 ft 496 kts 95°
2026-05-07 21:27 49.15896 -96.09968 36903 ft 496 kts 95°
2026-05-07 21:28 49.14800 -95.99566 36878 ft 496 kts 95°
2026-05-07 21:28 49.13694 -95.89172 36887 ft 495 kts 95°
2026-05-07 21:29 49.12581 -95.78795 36887 ft 495 kts 95°
2026-05-07 21:29 49.11457 -95.68404 36895 ft 496 kts 96°
2026-05-07 21:30 49.10323 -95.58017 36886 ft 496 kts 96°
2026-05-07 21:30 49.09187 -95.47704 36884 ft 496 kts 96°
2026-05-07 21:31 49.08026 -95.37254 36879 ft 496 kts 96°
2026-05-07 21:31 49.06871 -95.26940 36902 ft 497 kts 96°
2026-05-07 21:32 49.05690 -95.16486 36883 ft 497 kts 96°
2026-05-07 21:32 49.04516 -95.06179 36884 ft 497 kts 96°
2026-05-07 21:33 49.03325 -94.95809 36889 ft 497 kts 96°
2026-05-07 21:33 49.02125 -94.85449 36910 ft 497 kts 96°
2026-05-07 21:34 49.00914 -94.75081 36931 ft 497 kts 97°
2026-05-07 21:34 48.99694 -94.64721 36908 ft 497 kts 97°
2026-05-07 21:35 48.98468 -94.54384 36897 ft 496 kts 97°
2026-05-07 21:35 48.97232 -94.44055 36909 ft 496 kts 97°
2026-05-07 21:36 48.95987 -94.33731 36924 ft 496 kts 97°
2026-05-07 21:36 48.94732 -94.23405 36920 ft 496 kts 97°
2026-05-07 21:37 48.93469 -94.13090 36921 ft 496 kts 97°
2026-05-07 21:37 48.92195 -94.02774 36919 ft 496 kts 97°
2026-05-07 21:38 48.90917 -93.92501 36916 ft 496 kts 97°
2026-05-07 21:38 48.89626 -93.82202 36918 ft 496 kts 98°
2026-05-07 21:39 48.88334 -93.71971 36917 ft 496 kts 98°
2026-05-07 21:39 48.87032 -93.61739 36909 ft 496 kts 98°
2026-05-07 21:40 48.85715 -93.51463 36905 ft 496 kts 98°
2026-05-07 21:40 48.84388 -93.41187 36907 ft 496 kts 98°
2026-05-07 21:41 48.83051 -93.30914 36899 ft 496 kts 98°
2026-05-07 21:41 48.81705 -93.20644 36904 ft 496 kts 98°
2026-05-07 21:42 48.80350 -93.10378 36904 ft 496 kts 98°
2026-05-07 21:42 48.78995 -93.00187 36917 ft 497 kts 98°
2026-05-07 21:43 48.77624 -92.89954 36909 ft 497 kts 98°
2026-05-07 21:43 48.76241 -92.79706 36905 ft 496 kts 98°
2026-05-07 21:44 48.74848 -92.69456 36907 ft 496 kts 98°
2026-05-07 21:44 48.73448 -92.59225 36928 ft 496 kts 99°
2026-05-07 21:45 48.72042 -92.49020 36899 ft 496 kts 99°
2026-05-07 21:45 48.70623 -92.38790 36900 ft 496 kts 99°
2026-05-07 21:46 48.69194 -92.28565 36900 ft 496 kts 99°
2026-05-07 21:46 48.67761 -92.18375 36891 ft 496 kts 99°
2026-05-07 21:47 48.66314 -92.08161 36895 ft 497 kts 99°
2026-05-07 21:47 48.64861 -91.97969 36890 ft 497 kts 99°
2026-05-07 21:48 48.63400 -91.87794 36874 ft 497 kts 99°
2026-05-07 21:48 48.61963 -91.77851 36880 ft 497 kts 99°
2026-05-07 21:49 48.60492 -91.67741 36896 ft 497 kts 100°
2026-05-07 21:49 48.59007 -91.57598 36887 ft 497 kts 100°
2026-05-07 21:50 48.57503 -91.47393 36886 ft 497 kts 100°
2026-05-07 21:50 48.55991 -91.37202 36887 ft 498 kts 100°
2026-05-07 21:51 48.54469 -91.27011 36908 ft 498 kts 101°
2026-05-07 21:51 48.52937 -91.16818 36890 ft 498 kts 101°
2026-05-07 21:52 48.51393 -91.06618 36881 ft 498 kts 101°
2026-05-07 21:52 48.49843 -90.96438 36882 ft 498 kts 101°
2026-05-07 21:53 48.48284 -90.86265 36897 ft 498 kts 101°
2026-05-07 21:53 48.46727 -90.76165 36885 ft 498 kts 101°
2026-05-07 21:54 48.45149 -90.65994 36872 ft 499 kts 101°
2026-05-07 21:54 48.43561 -90.55828 36865 ft 498 kts 101°
2026-05-07 21:55 48.41967 -90.45681 36872 ft 498 kts 101°
2026-05-07 21:55 48.40361 -90.35526 36881 ft 499 kts 102°
2026-05-07 21:56 48.38747 -90.25376 36871 ft 499 kts 102°
2026-05-07 21:56 48.37122 -90.15228 36870 ft 499 kts 102°
2026-05-07 21:57 48.35490 -90.05091 36872 ft 499 kts 102°
2026-05-07 21:57 48.33847 -89.94947 36880 ft 499 kts 102°
2026-05-07 21:58 48.32196 -89.84820 36865 ft 499 kts 102°
2026-05-07 21:58 48.30539 -89.74713 36862 ft 498 kts 102°
2026-05-07 21:59 48.28885 -89.64679 36862 ft 498 kts 102°
2026-05-07 21:59 48.27215 -89.54597 36856 ft 498 kts 103°
2026-05-07 22:00 48.25523 -89.44521 36850 ft 498 kts 104°
2026-05-07 22:00 48.23064 -89.34795 36859 ft 499 kts 112°
2026-05-07 22:01 48.20247 -89.25282 36844 ft 499 kts 113°
2026-05-07 22:01 48.17434 -89.15769 36854 ft 499 kts 113°
2026-05-07 22:02 48.14662 -89.06219 36865 ft 500 kts 113°
2026-05-07 22:02 48.11905 -88.96657 36862 ft 500 kts 113°
2026-05-07 22:03 48.09144 -88.87106 36863 ft 500 kts 113°
2026-05-07 22:03 48.06369 -88.77555 36866 ft 500 kts 113°
2026-05-07 22:04 48.04058 -88.69635 36882 ft 501 kts 113°
2026-05-07 22:04 48.01268 -88.60110 36866 ft 501 kts 113°
2026-05-07 22:05 47.98479 -88.50624 36855 ft 500 kts 113°
2026-05-07 22:05 47.95678 -88.41138 36867 ft 500 kts 114°
2026-05-07 22:06 47.92870 -88.31662 36869 ft 500 kts 114°
2026-05-07 22:06 47.90050 -88.22179 36876 ft 500 kts 114°
2026-05-07 22:07 47.87223 -88.12713 36873 ft 500 kts 114°
2026-05-07 22:07 47.84388 -88.03257 36877 ft 500 kts 114°
2026-05-07 22:08 47.81547 -87.93816 36879 ft 500 kts 114°
2026-05-07 22:08 47.78698 -87.84385 36887 ft 500 kts 114°
2026-05-07 22:09 47.75842 -87.74965 36879 ft 500 kts 114°
2026-05-07 22:09 47.72978 -87.65556 36886 ft 500 kts 114°
2026-05-07 22:10 47.70108 -87.56162 36888 ft 500 kts 115°
2026-05-07 22:10 47.67240 -87.46808 36901 ft 500 kts 115°
2026-05-07 22:11 47.64385 -87.37535 36889 ft 500 kts 115°
2026-05-07 22:11 47.61532 -87.28300 36889 ft 500 kts 115°
2026-05-07 22:12 47.58666 -87.19058 36892 ft 499 kts 115°
2026-05-07 22:12 47.55834 -87.09958 36893 ft 499 kts 115°
2026-05-07 22:13 47.52915 -87.00613 36896 ft 499 kts 115°
2026-05-07 22:13 47.50030 -86.91413 36895 ft 499 kts 115°
2026-05-07 22:14 47.49695 -86.90347 36895 ft 499 kts 115°